Hawthorne, CA

3:45 AM PDT on May 30, 2017 (GMT -0700)
Northrop-Hawthorne Municipal

Weather History for KHHR - December, 2013

Change the Weather History Date:

Wednesday, December 11, 2013

  Actual Average Record
Temperature  
Mean Temperature 60 °F -  
Max Temperature 73 °F 65 °F 84 °F (1958)
Min Temperature 46 °F 48 °F 36 °F (1949)
Degree Days  
Heating Degree Days 6    
Growing Degree Days 10 (Base 50)    
Moisture  
Dew Point 19 °F    
Average Humidity 28    
Maximum Humidity 75    
Minimum Humidity 7    
Precipitation  
Precipitation 0.00 in - - ()
Sea Level Pressure  
Sea Level Pressure 30.14 in    
Wind  
Wind Speed 1 mph (West)    
Max Wind Speed 8 mph    
Max Gust Speed -    
Visibility 10 miles    
Events      
Averages and records for this station are not official NWS values.
T = Trace of Precipitation, MM = Missing Value Source: NWS Daily Summary

Daily Weather History Graph

Daily Weather History Graph

Search for Another Location

Airport or City:

Trip Planner

Search our weather history database for the weather conditions in past years. The results will help you decide how hot, cold, wet, or windy it might be!

Date:

Astronomy

Dec. 11, 2013 Rise Set
Actual Time 6:48 AM PST 4:44 PM PST
Civil Twilight 6:21 AM PST 5:12 PM PST
Nautical Twilight 5:49 AM PST 5:43 PM PST
Astronomical Twilight 5:19 AM PST 6:14 PM PST
Moon 1:10 PM PST (12/11) 1:27 AM PST (12/11)
Length of Visible Light 10h 51m
Length of Day
9h 56m
Waxing Gibbous, 72% of the Moon is Illuminated
Dec 11
Waxing Gibbous
Dec 17
Full
Dec 25
Last Quarter
Jan 1
New
Jan 7
First Quarter

Hourly Weather History & Observations

Time (PST) Temp. Dew Point Humidity Pressure Visibility Wind Dir Wind Speed Gust Speed Precip Events Conditions
12:53 AM 48.0 °F 9.0 °F 21% 30.12 in 10.0 mi Calm Calm - N/A   Clear
1:53 AM 46.9 °F 12.0 °F 24% 30.12 in 10.0 mi Calm Calm - N/A   Clear
2:53 AM 46.9 °F 10.9 °F 23% 30.11 in 10.0 mi Calm Calm - N/A   Clear
3:53 AM 46.0 °F 10.9 °F 24% 30.10 in 10.0 mi Calm Calm - N/A   Clear
4:53 AM 46.9 °F 10.9 °F 23% 30.11 in 10.0 mi Calm Calm - N/A   Clear
5:53 AM 48.0 °F 10.9 °F 22% 30.12 in 10.0 mi Calm Calm - N/A   Clear
6:53 AM 46.9 °F 10.9 °F 23% 30.14 in 10.0 mi Variable 3.5 mph - N/A   Clear
7:53 AM 52.0 °F 12.0 °F 20% 30.15 in 10.0 mi Calm Calm - N/A   Clear
8:53 AM 57.0 °F 10.9 °F 16% 30.17 in 10.0 mi North 4.6 mph - N/A   Clear
9:53 AM 63.0 °F 10.0 °F 13% 30.17 in 10.0 mi Variable 4.6 mph - N/A   Clear
10:53 AM 68.0 °F 6.1 °F 9% 30.16 in 10.0 mi Calm Calm - N/A   Clear
11:05 AM 68.0 °F 6.8 °F 9% 30.15 in 1.2 mi Variable 3.5 mph - N/A   Haze
11:13 AM 68.0 °F 8.6 °F 10% 30.15 in 10.0 mi Calm Calm - N/A   Clear
11:53 AM 71.1 °F 7.0 °F 8% 30.14 in 10.0 mi Calm Calm - N/A   Clear
12:53 PM 72.0 °F 3.0 °F 7% 30.11 in 10.0 mi Variable 3.5 mph - N/A   Clear
1:53 PM 73.0 °F 6.1 °F 7% 30.10 in 10.0 mi WSW 4.6 mph - N/A   Clear
2:53 PM 73.0 °F 5.0 °F 7% 30.10 in 10.0 mi West 4.6 mph - N/A   Clear
3:53 PM 64.0 °F 46.0 °F 52% 30.12 in 10.0 mi West 8.1 mph - N/A   Clear
4:53 PM 61.0 °F 46.0 °F 58% 30.13 in 10.0 mi West 4.6 mph - N/A   Clear
5:53 PM 59.0 °F 48.0 °F 67% 30.14 in 10.0 mi Calm Calm - N/A   Clear
6:53 PM 57.0 °F 48.9 °F 74% 30.15 in 10.0 mi Calm Calm - N/A   Clear
7:53 PM 55.9 °F 48.0 °F 75% 30.16 in 10.0 mi Calm Calm - N/A   Clear
8:53 PM 55.9 °F 39.0 °F 53% 30.17 in 10.0 mi Calm Calm - N/A   Clear
9:53 PM 57.0 °F 21.0 °F 25% 30.17 in 10.0 mi Calm Calm - N/A   Clear
10:53 PM 55.9 °F 17.1 °F 22% 30.16 in 10.0 mi Calm Calm - N/A   Clear
11:53 PM 54.0 °F 17.1 °F 23% 30.15 in 10.0 mi Calm Calm - N/A   Clear